Location: Newark
(43.0000°N, 1.6781°W)
Time: 17:00:19
(UTC+00:00)

A-11 Canister half - Visible Passes

Search period start: 24 September 2022 00:00
Search period end: 04 October 2022 00:00
Orbit: 1515 x 1684 km, 47.2° (Epoch: 23 September)

Date Brightness Start Highest point End Pass type
(mag) Time Alt. Az. Time Alt. Az. Time Alt. Az.
24 Sep 9.5 01:18:13 50° ENE 01:18:13 50° ENE 01:24:42 10° ENE visible
24 Sep 9.0 03:16:26 35° WNW 03:21:01 75° NNE 03:30:18 10° E visible
24 Sep 9.1 05:16:49 10° WNW 05:25:49 59° SW 05:34:53 10° SE visible
25 Sep 9.9 00:56:42 37° ENE 00:56:42 37° ENE 01:01:45 10° ENE visible
25 Sep 9.0 02:54:55 47° WNW 02:58:04 74° NNE 03:07:21 10° E visible
25 Sep 9.0 04:53:52 10° WNW 05:02:56 62° SW 05:12:03 10° SE visible
26 Sep 10.3 00:35:16 27° ENE 00:35:16 27° ENE 00:38:49 10° ENE visible
26 Sep 9.0 02:33:30 62° NW 02:35:07 73° N 02:44:23 10° E visible
26 Sep 8.9 04:31:42 13° WNW 04:40:03 65° SSW 04:49:11 10° SE visible
26 Sep 10.6 19:52:37 10° SSE 19:53:13 11° SSE 19:53:13 11° SSE visible
27 Sep 10.7 00:13:55 18° ENE 00:13:55 18° ENE 00:15:53 10° ENE visible
27 Sep 9.0 02:12:09 72° N 02:12:10 72° N 02:21:25 10° E visible
27 Sep 8.9 04:10:23 20° WNW 04:17:10 68° SSW 04:26:20 10° SE visible
27 Sep 10.4 19:30:16 10° SSE 19:32:42 14° SE 19:32:42 14° SE visible
27 Sep 10.7 21:29:35 10° SW 21:30:59 15° SSW 21:30:59 15° SSW visible
27 Sep 11.0 23:52:41 11° ENE 23:52:41 11° ENE 23:52:57 10° ENE visible
28 Sep 9.2 01:50:56 60° ENE 01:50:56 60° ENE 01:58:28 10° E visible
28 Sep 8.8 03:49:10 30° WNW 03:54:16 71° SSW 04:03:28 10° SE visible
28 Sep 10.3 19:08:01 10° SSE 19:12:09 15° SE 19:12:09 15° SE visible
28 Sep 10.2 21:06:45 10° SSW 21:10:26 25° SSW 21:10:26 25° SSW visible
28 Sep11.323:31:35ENE23:31:35ENE23:08:43WSWvisible
29 Sep 9.7 01:29:49 42° ENE 01:29:49 42° ENE 01:35:30 10° E visible
29 Sep 8.8 03:28:04 45° WNW 03:31:23 74° SSW 03:40:36 10° SE visible
29 Sep 9.8 05:27:56 10° WNW 05:35:08 26° SW 05:42:23 10° S visible
29 Sep 10.3 18:45:53 10° SSE 18:49:53 13° ESE 18:51:32 13° ESE visible
29 Sep 9.6 20:43:56 10° SSW 20:49:48 37° S 20:49:48 37° S visible
30 Sep 10.2 01:08:52 28° E 01:08:52 28° E 01:12:32 10° E visible
30 Sep 8.7 03:07:07 66° W 03:08:29 77° SSW 03:17:43 10° SE visible
30 Sep 9.7 05:05:23 12° W 05:12:19 28° SW 05:19:47 10° S visible
30 Sep 10.4 18:23:57 10° SE 18:27:05 12° ESE 18:30:10 10° ESE visible
30 Sep 9.3 20:21:07 10° SSW 20:29:04 45° SSE 20:29:04 45° SSE visible
30 Sep 10.6 22:25:07 10° WSW 22:27:20 19° WSW 22:27:20 19° WSW visible
01 Oct 10.7 00:48:00 16° E 00:48:00 16° E 00:49:35 10° E visible
01 Oct 8.8 02:46:17 75° SSE 02:46:17 75° SSE 02:54:49 10° ESE visible
01 Oct 9.6 04:44:34 19° W 04:49:29 30° SW 04:57:09 10° S visible
01 Oct 9.2 19:58:20 10° SSW 20:07:22 44° SE 20:08:13 43° SE visible
01 Oct 10.1 22:02:08 10° WSW 22:06:28 31° WSW 22:06:28 31° WSW visible
02 Oct 9.3 02:25:34 50° SE 02:25:34 50° SE 02:31:56 10° ESE visible
02 Oct 9.5 04:23:51 27° WSW 04:26:39 32° SW 04:34:30 10° SSE visible
02 Oct 9.3 19:35:33 10° SSW 19:44:30 42° SE 19:47:14 35° ESE visible
02 Oct 9.5 21:39:10 10° WSW 21:45:29 47° WSW 21:45:29 47° WSW visible
03 Oct11.300:06:39E00:06:39E23:43:43Wvisible
03 Oct 10.0 02:04:57 31° ESE 02:04:57 31° ESE 02:09:01 10° ESE visible
03 Oct 9.4 04:03:14 34° SW 04:03:50 34° SW 04:11:51 10° SSE visible
03 Oct 9.4 19:12:46 10° SSW 19:21:38 40° SE 19:26:07 26° E visible
03 Oct 9.1 21:16:12 10° WSW 21:24:20 67° WSW 21:24:20 67° WSW visible
03 Oct 11.0 23:21:54 10° W 23:22:35 13° W 23:22:35 13° W visible
